Location: Del Amo
(33.8464°N, 118.2104°W)
Time: 07:16:08
(UTC+00:00)

HTV-X1 - Pass Details

Date: 23 May 2026
Orbit: 368 x 378 km, 51.6° (Epoch: 26 May)

Event Time Altitude Azimuth Distance (km) Brightness Sun altitude
Rises 04:30:54 0° 332° (NNW) 2,216 ? -17.9°
Reaches altitude 10° 04:34:20 10° 13° (NNE) 1,366 ? -18.4°
Maximum altitude 04:35:07 11° 28° (NNE) 1,325 ? -18.6°
Drops below altitude 10° 04:35:54 10° 43° (NE) 1,366 ? -18.7°
Enters shadow 04:35:59 10° 45° (NE) 1,375 ? -18.7°
